| time (UTC) | temp F | wind direction | speed MPH | gust MPH | rain 1hr in | rain 24hr in | rain mn in | humidity % | barometer mb |
| 20260905182515 | 67 | 228 | 2.0 | 3.0 | 0.00 | 0.00 | 0.00 | 81 | 1030.6 |
| 20260905181526 | 67 | 309 | 1.0 | 3.0 | 0.00 | 0.00 | 0.00 | 81 | 1030.5 |
| 20260905180533 | 68 | 310 | 0.0 | 1.0 | 0.00 | 0.00 | 0.00 | 78 | 1030.3 |
| 20260905175525 | 68 | 310 | 0.0 | 1.0 | 0.00 | 0.00 | 0.00 | 78 | 1030.1 |
| 20260905174536 | 68 | 329 | 1.0 | 3.0 | 0.00 | 0.00 | 0.00 | 77 | 1030.0 |
| 20260905173546 | 68 | 333 | 3.0 | 6.0 | 0.00 | 0.00 | 0.00 | 77 | 1029.9 |
| 20260905172516 | 68 | 332 | 3.0 | 6.0 | 0.00 | 0.00 | 0.00 | 76 | 1029.9 |
| 20260905171525 | 69 | 328 | 2.0 | 3.0 | 0.00 | 0.00 | 0.00 | 75 | 1029.8 |
| 20260905170553 | 70 | 347 | 1.0 | 2.0 | 0.00 | 0.00 | 0.00 | 74 | 1029.7 |
| 20260905165526 | 70 | 0.0 | 0.0 | 0.00 | 0.00 | 0.00 | 73 | 1029.7 | |
| 20260905164536 | 69 | 267 | 2.0 | 3.0 | 0.00 | 0.00 | 0.00 | 74 | 1029.6 |
| 20260905163526 | 69 | 255 | 2.0 | 3.0 | 0.00 | 0.00 | 0.00 | 74 | 1029.6 |
| 20260905162532 | 70 | 327 | 1.0 | 3.0 | 0.00 | 0.00 | 0.00 | 73 | 1029.5 |
| 20260905161526 | 70 | 348 | 1.0 | 2.0 | 0.00 | 0.00 | 0.00 | 72 | 1029.4 |
| 20260905160524 | 71 | 323 | 1.0 | 3.0 | 0.00 | 0.00 | 0.00 | 71 | 1029.3 |
| 20260905155525 | 70 | 329 | 5.0 | 10.0 | 0.00 | 0.00 | 0.00 | 72 | 1029.3 |
| 20260905154557 | 70 | 322 | 4.0 | 8.0 | 0.00 | 0.00 | 0.00 | 71 | 1029.1 |
| 20260905153525 | 70 | 335 | 6.0 | 10.0 | 0.00 | 0.00 | 0.00 | 72 | 1029.2 |
| 20260905152517 | 70 | 334 | 7.0 | 11.0 | 0.00 | 0.00 | 0.00 | 73 | 1029.3 |
| 20260905151525 | 70 | 333 | 6.0 | 9.0 | 0.00 | 0.00 | 0.00 | 73 | 1029.3 |
| 20260905150537 | 71 | 329 | 6.0 | 11.0 | 0.00 | 0.00 | 0.00 | 71 | 1029.2 |
| 20260905145526 | 71 | 340 | 8.0 | 15.0 | 0.00 | 0.00 | 0.00 | 71 | 1029.1 |
| 20260905144518 | 70 | 329 | 8.0 | 14.0 | 0.00 | 0.00 | 0.00 | 72 | 1029.2 |
| 20260905143526 | 71 | 329 | 7.0 | 14.0 | 0.00 | 0.00 | 0.00 | 71 | 1029.1 |
| 20260905142518 | 71 | 320 | 8.0 | 14.0 | 0.00 | 0.00 | 0.00 | 70 | 1029.1 |
| 20260905141526 | 71 | 331 | 11.0 | 21.0 | 0.00 | 0.00 | 0.00 | 70 | 1028.8 |
| 20260905140551 | 71 | 331 | 12.0 | 21.0 | 0.00 | 0.00 | 0.00 | 70 | 1028.7 |
| 20260905135526 | 72 | 323 | 14.0 | 26.0 | 0.00 | 0.00 | 0.00 | 69 | 1028.6 |
| 20260905134518 | 72 | 330 | 12.0 | 19.0 | 0.00 | 0.00 | 0.00 | 69 | 1028.4 |
| 20260905133526 | 73 | 324 | 12.0 | 22.0 | 0.00 | 0.00 | 0.00 | 67 | 1028.1 |
| 20260905132518 | 74 | 325 | 13.0 | 23.0 | 0.00 | 0.00 | 0.00 | 66 | 1028.1 |
| 20260905131526 | 74 | 331 | 8.0 | 15.0 | 0.00 | 0.00 | 0.00 | 66 | 1028.0 |
| 20260905130517 | 73 | 328 | 7.0 | 14.0 | 0.00 | 0.00 | 0.00 | 68 | 1028.0 |
| 20260905125549 | 73 | 326 | 7.0 | 13.0 | 0.00 | 0.00 | 0.00 | 66 | 1028.0 |
| 20260905124517 | 75 | 356 | 5.0 | 11.0 | 0.00 | 0.00 | 0.00 | 65 | 1027.9 |
| 20260905123525 | 75 | 339 | 5.0 | 11.0 | 0.00 | 0.00 | 0.00 | 65 | 1027.8 |
| 20260905122517 | 75 | 337 | 5.0 | 10.0 | 0.00 | 0.00 | 0.00 | 66 | 1027.6 |
| 20260905121526 | 73 | 355 | 4.0 | 10.0 | 0.00 | 0.00 | 0.00 | 69 | 1027.7 |
| 20260905120518 | 72 | 273 | 2.0 | 4.0 | 0.00 | 0.00 | 0.00 | 70 | 1027.8 |
| 20260905115526 | 73 | 291 | 1.0 | 2.0 | 0.00 | 0.00 | 0.00 | 69 | 1028.0 |
| 20260905114537 | 73 | 333 | 1.0 | 4.0 | 0.00 | 0.00 | 0.00 | 70 | 1028.0 |
| 20260905113546 | 72 | 309 | 1.0 | 3.0 | 0.00 | 0.00 | 0.00 | 70 | 1028.3 |
| 20260905112517 | 69 | 326 | 2.0 | 3.0 | 0.00 | 0.00 | 0.00 | 74 | 1028.3 |
| 20260905111525 | 69 | 336 | 3.0 | 6.0 | 0.00 | 0.00 | 0.00 | 75 | 1028.4 |
| 20260905110538 | 69 | 7 | 2.0 | 4.0 | 0.00 | 0.00 | 0.00 | 75 | 1028.4 |
| 20260905105525 | 68 | 335 | 3.0 | 7.0 | 0.00 | 0.00 | 0.00 | 77 | 1028.6 |
| 20260905104518 | 67 | 350 | 3.0 | 6.0 | 0.00 | 0.00 | 0.00 | 77 | 1028.5 |
| 20260905103546 | 67 | 6 | 2.0 | 6.0 | 0.00 | 0.00 | 0.00 | 76 | 1028.7 |
| 20260905102518 | 66 | 357 | 2.0 | 7.0 | 0.00 | 0.00 | 0.00 | 78 | 1028.6 |
| 20260905101546 | 66 | 323 | 2.0 | 4.0 | 0.00 | 0.00 | 0.00 | 78 | 1028.7 |
| 20260905100518 | 66 | 329 | 2.0 | 4.0 | 0.00 | 0.00 | 0.00 | 78 | 1028.8 |
| 20260905095526 | 66 | 351 | 3.0 | 7.0 | 0.00 | 0.00 | 0.00 | 78 | 1028.8 |
| 20260905094518 | 66 | 332 | 2.0 | 6.0 | 0.00 | 0.00 | 0.00 | 77 | 1028.7 |
| 20260905093646 | 65 | 300 | 2.0 | 4.0 | 0.00 | 0.00 | 0.00 | 80 | 1028.9 |
| 20260905092518 | 65 | 329 | 3.0 | 6.0 | 0.00 | 0.00 | 0.00 | 80 | 1029.1 |
| 20260905091526 | 64 | 331 | 4.0 | 7.0 | 0.00 | 0.00 | 0.00 | 80 | 1028.9 |
| 20260905090517 | 65 | 332 | 3.0 | 6.0 | 0.00 | 0.00 | 0.00 | 79 | 1028.7 |
| 20260905085606 | 65 | 348 | 2.0 | 6.0 | 0.00 | 0.00 | 0.00 | 79 | 1028.7 |
| 20260905084537 | 65 | 342 | 2.0 | 4.0 | 0.00 | 0.00 | 0.00 | 79 | 1028.6 |
| 20260905083545 | 64 | 342 | 3.0 | 6.0 | 0.00 | 0.00 | 0.00 | 79 | 1028.4 |
| 20260905082516 | 64 | 7 | 2.0 | 4.0 | 0.00 | 0.00 | 0.00 | 79 | 1028.5 |
| 20260905081606 | 64 | 331 | 3.0 | 8.0 | 0.00 | 0.00 | 0.00 | 79 | 1028.5 |
| 20260905080537 | 64 | 47 | 2.0 | 4.0 | 0.00 | 0.00 | 0.00 | 80 | 1028.2 |
| 20260905075525 | 63 | 289 | 3.0 | 8.0 | 0.00 | 0.00 | 0.00 | 80 | 1028.0 |
| 20260905074517 | 64 | 321 | 7.0 | 13.0 | 0.00 | 0.00 | 0.00 | 81 | 1027.9 |
| 20260905073526 | 65 | 329 | 6.0 | 13.0 | 0.00 | 0.00 | 0.00 | 80 | 1027.8 |
| 20260905072518 | 66 | 323 | 6.0 | 13.0 | 0.00 | 0.00 | 0.00 | 76 | 1027.5 |
| 20260905071526 | 66 | 324 | 6.0 | 15.0 | 0.00 | 0.00 | 0.00 | 74 | 1027.4 |
| 20260905070518 | 67 | 330 | 4.0 | 8.0 | 0.00 | 0.00 | 0.00 | 74 | 1027.2 |
| 20260905065526 | 67 | 328 | 5.0 | 9.0 | 0.00 | 0.00 | 0.00 | 75 | 1026.7 |
| 20260905064517 | 66 | 329 | 5.0 | 9.0 | 0.00 | 0.00 | 0.00 | 77 | 1026.5 |
| 20260905063526 | 66 | 317 | 1.0 | 4.0 | 0.00 | 0.00 | 0.00 | 79 | 1026.3 |
| 20260905062517 | 66 | 317 | 2.0 | 6.0 | 0.00 | 0.00 | 0.00 | 79 | 1026.1 |
| 20260905061525 | 64 | 333 | 2.0 | 7.0 | 0.00 | 0.00 | 0.00 | 83 | 1026.1 |
| 20260905060518 | 64 | 337 | 2.0 | 4.0 | 0.00 | 0.00 | 0.00 | 84 | 1026.0 |
| 20260905055532 | 63 | 337 | 2.0 | 4.0 | 0.00 | 0.00 | 0.00 | 84 | 1025.8 |
| 20260905054516 | 64 | 28 | 0.0 | 2.0 | 0.00 | 0.00 | 0.00 | 83 | 1025.7 |
| 20260905053546 | 64 | 343 | 2.0 | 6.0 | 0.00 | 0.00 | 0.00 | 81 | 1025.8 |
| 20260905052516 | 63 | 311 | 3.0 | 8.0 | 0.00 | 0.00 | 0.00 | 84 | 1025.8 |
| 20260905051526 | 62 | 329 | 2.0 | 4.0 | 0.00 | 0.00 | 0.00 | 86 | 1025.5 |
| 20260905050536 | 63 | 85 | 2.0 | 2.0 | 0.00 | 0.00 | 0.00 | 83 | 1025.1 |
| 20260905045526 | 62 | 319 | 3.0 | 8.0 | 0.00 | 0.00 | 0.00 | 85 | 1025.0 |
| 20260905044516 | 62 | 340 | 1.0 | 3.0 | 0.00 | 0.00 | 0.00 | 84 | 1024.7 |
| 20260905043525 | 64 | 94 | 1.0 | 3.0 | 0.00 | 0.00 | 0.00 | 82 | 1024.5 |
| 20260905042517 | 62 | 312 | 1.0 | 4.0 | 0.00 | 0.00 | 0.00 | 85 | 1024.6 |
| 20260905041604 | 61 | 331 | 3.0 | 3.0 | 0.00 | 0.00 | 0.00 | 86 | 1024.5 |
| 20260905040518 | 61 | 22 | 1.0 | 3.0 | 0.00 | 0.00 | 0.00 | 86 | 1024.4 |
| 20260905035526 | 63 | 313 | 1.0 | 2.0 | 0.00 | 0.00 | 0.00 | 82 | 1024.3 |
| 20260905034518 | 63 | 273 | 1.0 | 2.0 | 0.00 | 0.00 | 0.00 | 83 | 1024.2 |
| 20260905033531 | 63 | 330 | 0.0 | 1.0 | 0.00 | 0.00 | 0.00 | 83 | 1024.2 |
| 20260905032530 | 62 | 0.0 | 0.0 | 0.00 | 0.00 | 0.00 | 85 | 1024.3 | |
| 20260905031524 | 63 | 332 | 2.0 | 3.0 | 0.00 | 0.00 | 0.00 | 82 | 1024.5 |
| 20260905030517 | 64 | 0.0 | 0.0 | 0.00 | 0.00 | 0.00 | 82 | 1024.5 | |
| 20260905025544 | 64 | 309 | 1.0 | 3.0 | 0.00 | 0.00 | 0.00 | 82 | 1024.5 |
| 20260905024538 | 63 | 354 | 3.0 | 4.0 | 0.00 | 0.00 | 0.00 | 82 | 1024.6 |
| 20260905023544 | 64 | 334 | 1.0 | 2.0 | 0.00 | 0.00 | 0.00 | 81 | 1024.6 |
| 20260905022538 | 64 | 353 | 0.0 | 1.0 | 0.00 | 0.00 | 0.00 | 81 | 1024.4 |
| 20260905021533 | 65 | 189 | 1.0 | 3.0 | 0.00 | 0.00 | 0.00 | 80 | 1024.5 |
| 20260905020517 | 65 | 7 | 0.0 | 1.0 | 0.00 | 0.00 | 0.00 | 79 | 1024.5 |
| 20260905015547 | 65 | 256 | 1.0 | 2.0 | 0.00 | 0.00 | 0.00 | 79 | 1024.7 |
| 20260905014531 | 65 | 268 | 1.0 | 2.0 | 0.00 | 0.00 | 0.00 | 78 | 1024.6 |
| 20260905013526 | 64 | 271 | 1.0 | 2.0 | 0.00 | 0.00 | 0.00 | 81 | 1024.5 |
| 20260905012516 | 64 | 187 | 2.0 | 3.0 | 0.00 | 0.00 | 0.00 | 82 | 1024.6 |
| 20260905011526 | 63 | 146 | 1.0 | 3.0 | 0.00 | 0.00 | 0.00 | 82 | 1024.6 |
| 20260905010533 | 63 | 28 | 0.0 | 2.0 | 0.00 | 0.00 | 0.00 | 83 | 1024.6 |
| 20260905005525 | 64 | 341 | 0.0 | 2.0 | 0.00 | 0.00 | 0.00 | 81 | 1024.5 |
| 20260905004516 | 63 | 265 | 1.0 | 2.0 | 0.00 | 0.00 | 0.00 | 82 | 1024.5 |
| 20260905003546 | 64 | 21 | 1.0 | 2.0 | 0.00 | 0.00 | 0.00 | 82 | 1024.4 |
| 20260905002544 | 63 | 311 | 1.0 | 2.0 | 0.00 | 0.00 | 0.00 | 83 | 1024.4 |
| 20260905001526 | 64 | 41 | 1.0 | 2.0 | 0.00 | 0.00 | 0.00 | 82 | 1024.4 |
| 20260905000524 | 64 | 281 | 1.0 | 2.0 | 0.00 | 0.00 | 0.00 | 80 | 1024.2 |
| 20260904235526 | 64 | 0.0 | 0.0 | 0.00 | 0.00 | 0.00 | 81 | 1024.4 | |
| 20260904234524 | 64 | 295 | 0.0 | 1.0 | 0.00 | 0.00 | 0.00 | 81 | 1024.3 |
| 20260904233526 | 63 | 295 | 0.0 | 1.0 | 0.00 | 0.00 | 0.00 | 82 | 1024.3 |
| 20260904232524 | 64 | 0.0 | 0.0 | 0.00 | 0.00 | 0.00 | 81 | 1024.1 | |
| 20260904231546 | 64 | 293 | 0.0 | 1.0 | 0.00 | 0.00 | 0.00 | 80 | 1024.0 |
| 20260904230524 | 64 | 315 | 1.0 | 2.0 | 0.00 | 0.00 | 0.00 | 79 | 1024.1 |
| 20260904225516 | 64 | 337 | 1.0 | 2.0 | 0.00 | 0.00 | 0.00 | 80 | 1024.1 |
| 20260904224524 | 65 | 339 | 2.0 | 6.0 | 0.00 | 0.00 | 0.00 | 77 | 1023.9 |
| 20260904223516 | 66 | 219 | 1.0 | 3.0 | 0.00 | 0.00 | 0.00 | 75 | 1023.7 |
| 20260904222524 | 66 | 201 | 1.0 | 2.0 | 0.00 | 0.00 | 0.00 | 75 | 1023.7 |
| 20260904221536 | 66 | 213 | 1.0 | 2.0 | 0.00 | 0.00 | 0.00 | 77 | 1023.7 |
| 20260904220524 | 66 | 284 | 1.0 | 2.0 | 0.00 | 0.00 | 0.00 | 76 | 1023.8 |
| 20260904215516 | 65 | 292 | 0.0 | 1.0 | 0.00 | 0.00 | 0.00 | 78 | 1023.8 |
| 20260904214544 | 65 | 292 | 0.0 | 1.0 | 0.00 | 0.00 | 0.00 | 79 | 1023.7 |
| 20260904213516 | 65 | 292 | 1.0 | 2.0 | 0.00 | 0.00 | 0.00 | 78 | 1023.6 |
| 20260904212524 | 66 | 293 | 0.0 | 2.0 | 0.00 | 0.00 | 0.00 | 76 | 1023.4 |
| 20260904211516 | 66 | 323 | 1.0 | 1.0 | 0.00 | 0.00 | 0.00 | 77 | 1023.5 |
| 20260904210524 | 66 | 11 | 0.0 | 1.0 | 0.00 | 0.00 | 0.00 | 77 | 1023.5 |
| 20260904205516 | 67 | 11 | 0.0 | 1.0 | 0.00 | 0.00 | 0.00 | 76 | 1023.4 |
| 20260904204524 | 67 | 327 | 0.0 | 1.0 | 0.00 | 0.00 | 0.00 | 74 | 1023.4 |
| 20260904203527 | 67 | 336 | 1.0 | 1.0 | 0.00 | 0.00 | 0.00 | 74 | 1023.4 |
| 20260904202532 | 68 | 347 | 1.0 | 2.0 | 0.00 | 0.00 | 0.00 | 73 | 1023.3 |
| 20260904201532 | 69 | 287 | 0.0 | 1.0 | 0.00 | 0.00 | 0.00 | 71 | 1023.2 |
| 20260904200516 | 68 | 165 | 0.0 | 1.0 | 0.00 | 0.00 | 0.00 | 72 | 1023.0 |
| 20260904195532 | 69 | 165 | 1.0 | 1.0 | 0.00 | 0.00 | 0.00 | 72 | 1022.9 |
| 20260904194516 | 70 | 165 | 1.0 | 2.0 | 0.00 | 0.00 | 0.00 | 70 | 1022.8 |
| 20260904193531 | 70 | 149 | 1.0 | 2.0 | 0.00 | 0.00 | 0.00 | 68 | 1022.9 |
| 20260904192516 | 70 | 266 | 1.0 | 2.0 | 0.00 | 0.00 | 0.00 | 68 | 1022.9 |
| 20260904191532 | 70 | 166 | 1.0 | 3.0 | 0.00 | 0.00 | 0.00 | 69 | 1022.8 |
| 20260904190534 | 71 | 63 | 0.0 | 2.0 | 0.00 | 0.00 | 0.00 | 68 | 1022.6 |
| 20260904185552 | 71 | 250 | 2.0 | 3.0 | 0.00 | 0.00 | 0.00 | 68 | 1022.5 |
| 20260904184523 | 71 | 69 | 1.0 | 2.0 | 0.00 | 0.00 | 0.00 | 68 | 1022.4 |
| 20260904183532 | 71 | 195 | 1.0 | 2.0 | 0.00 | 0.00 | 0.00 | 68 | 1022.2 |